Wind_Speed
22 22 22 22 22 23 23 23 23 23 23 23 23 24 24 24 25 26 26 27 28 29 29 29 30 30 31 31 32 33 34 35 36 38 39 41 42 43 44 45 45 45 46 46 46 46 46 46 46 46 46 47 47 49 50 51 52 52 52 52 52 54 55 57 60 62 61 58 59 59 58 58 59 59 59 61 61 61 62 62 61 59 59 60 61
23 22 23 23 24 24 24 24 23 23 23 24 24 25 25 26 26 27 27 28 29 29 29 30 30 30 31 32 33 34 35 36 38 39 41 43 44 45 45 45 45 45 45 45 44 44 44 44 45 46 46 47 47 48 49 50 51 51 52 52 52 54 55 57 59 61 62 60 58 58 57 57 58 58 58 60 61 62 63 63 62 61 61 60 60
23 24 24 25 25 24 24 24 24 24 25 25 25 25 26 26 27 27 28 29 29 30 30 30 31 31 32 33 34 36 37 39 41 42 43 44 45 45 45 45 44 44 44 44 43 44 44 44 45 46 46 47 48 48 49 50 50 51 52 52 53 54 55 56 57 59 61 60 58 57 57 57 57 57 57 59 60 61 62 62 62 62 62 61 59
25 25 26 26 26 25 25 25 25 25 25 26 26 26 26 27 27 28 29 29 30 30 30 31 32 33 34 35 37 39 40 42 43 44 45 45 45 44 44 43 43 43 43 43 44 44 44 45 45 46 47 47 48 48 49 50 51 52 52 52 53 55 55 55 56 57 58 59 58 57 57 57 57 56 57 58 59 60 61 61 61 62 62 60 59
26 27 27 27 27 26 26 26 26 26 26 27 27 27 27 28 29 29 30 30 30 31 32 32 34 35 36 38 39 41 42 43 44 44 44 45 44 44 43 43 42 43 43 43 44 44 44 45 45 46 47 48 48 49 50 51 52 52 53 53 54 55 56 55 55 55 56 58 58 57 56 56 55 55 55 57 58 59 59 59 59 61 61 59 58
28 28 28 28 27 27 28 27 27 27 27 27 27 28 28 29 29 30 31 32 32 33 34 35 36 37 39 40 41 42 43 43 44 44 44 44 43 43 43 42 43 43 43 43 43 43 43 44 45 46 47 48 49 50 50 51 52 53 53 53 54 55 55 55 54 55 56 57 58 57 56 55 55 54 54 56 58 59 60 60 58 59 60 59 58
29 29 29 29 28 28 28 28 28 28 28 28 28 29 29 30 31 32 33 33 34 34 35 36 38 39 39 41 41 42 43 43 44 44 44 44 43 42 42 42 42 42 42 43 43 43 43 43 44 45 46 47 48 49 50 51 52 53 53 53 54 54 54 54 54 55 55 56 57 58 57 56 55 56 55 56 57 58 60 62 61 59 59 59 59
30 30 30 29 29 29 28 28 28 28 28 29 29 30 31 32 33 33 34 34 35 35 36 37 38 39 40 41 42 42 43 43 44 44 44 43 43 42 42 42 42 42 42 42 43 43 43 43 44 44 45 46 48 48 50 51 52 53 53 53 54 54 54 54 54 55 55 56 57 57 57 56 56 57 57 57 58 58 59 62 63 62 61 59 58
31 31 30 29 29 29 29 29 29 29 30 30 31 31 32 33 34 34 34 35 35 36 37 38 38 39 40 41 42 43 43 43 43 44 44 44 43 43 42 42 42 42 42 42 42 42 43 43 43 44 45 45 46 47 48 50 51 52 52 53 53 53 54 54 54 55 55 56 56 56 56 56 57 58 58 58 58 59 60 61 63 63 62 61 58
31 31 30 29 29 30 30 30 31 31 31 32 32 33 33 34 34 34 35 35 36 37 37 38 39 40 41 42 42 43 43 43 43 43 44 44 44 43 43 42 43 43 43 43 43 42 43 43 44 44 45 45 46 46 47 48 49 51 51 52 52 53 53 54 54 54 55 56 56 56 56 57 58 58 58 59 59 60 61 62 63 63 63 63 60
31 31 30 30 31 31 32 32 32 32 32 32 33 33 34 34 35 35 36 36 37 37 38 39 39 40 41 41 42 42 42 42 42 43 44 44 44 43 43 43 43 43 43 43 43 43 44 44 45 46 46 46 46 46 46 47 48 49 50 50 51 52 52 53 54 55 55 56 56 55 56 58 59 58 58 59 60 61 62 62 64 64 64 65 64
32 31 31 31 32 33 33 33 33 32 32 32 33 34 35 35 36 36 37 37 38 38 38 39 39 40 40 40 41 41 41 42 42 43 43 44 44 44 43 43 43 43 43 43 43 44 45 45 46 47 47 47 47 47 47 47 48 49 50 50 50 51 51 52 54 55 54 54 54 55 56 57 59 58 58 59 61 62 62 63 64 65 65 65 66
32 32 32 32 33 33 33 34 33 32 32 33 35 36 36 37 37 37 37 38 38 38 39 39 39 39 39 39 40 41 41 42 42 43 43 44 44 43 43 43 43 43 43 43 43 44 45 46 46 47 47 47 47 48 48 49 49 50 51 51 51 51 51 52 53 54 53 52 53 55 56 57 58 59 58 59 61 62 64 64 64 65 66 66 66
32 32 33 33 32 33 34 34 33 33 34 36 37 37 37 37 36 36 37 38 38 39 39 39 39 39 38 39 40 41 41 42 42 43 43 44 44 43 43 43 43 42 42 43 43 44 45 46 46 46 46 47 47 48 49 50 51 52 52 52 52 52 53 53 53 53 53 53 54 57 58 57 58 59 59 59 61 62 64 65 65 65 66 66 66
32 33 33 32 32 34 35 35 35 35 36 38 38 38 37 36 36 37 37 38 38 39 39 39 38 38 38 39 39 40 41 42 42 43 44 44 44 43 43 43 42 42 42 43 43 44 45 46 46 46 46 46 47 48 50 51 52 53 54 54 54 54 54 54 53 54 54 55 57 59 59 59 58 59 60 60 60 61 63 64 65 65 66 66 66
34 34 33 32 33 35 37 37 37 37 38 39 39 38 37 36 36 37 37 37 38 38 38 38 38 38 38 39 39 40 41 42 42 43 44 44 44 43 43 43 42 42 42 43 43 44 45 45 45 46 46 47 48 49 50 52 53 55 55 55 55 55 55 54 54 55 56 57 59 60 60 60 60 60 60 59 60 61 62 64 64 63 64 66 66
34 33 33 33 35 37 39 40 39 39 39 40 39 38 36 36 36 37 37 37 37 38 38 38 38 38 39 39 39 40 41 42 42 43 44 45 45 44 43 43 43 42 43 43 44 45 45 45 45 46 47 48 48 50 51 52 54 55 56 56 56 55 55 55 56 57 58 60 61 61 61 62 62 62 61 60 60 61 62 64 63 62 63 64 64
34 33 33 34 37 40 41 41 40 40 40 40 39 37 36 36 37 37 37 37 37 37 38 38 38 38 39 39 40 40 41 42 42 43 44 44 45 44 44 44 43 43 44 44 45 45 45 45 45 46 48 49 49 50 51 53 55 56 56 57 57 57 58 58 60 61 62 63 63 63 63 64 64 65 64 64 63 61 62 63 62 61 61 62 61
32 33 34 36 40 41 42 41 40 40 40 39 39 38 37 37 37 37 37 37 37 37 37 37 38 38 39 40 40 40 41 41 42 43 43 44 44 45 44 44 44 44 45 46 46 46 46 46 46 47 49 50 50 51 52 53 55 57 58 59 60 60 60 61 63 65 65 65 66 66 66 66 67 67 67 66 65 64 62 62 61 60 61 60 59
32 34 36 39 41 42 42 41 41 41 40 39 39 38 37 37 38 38 37 37 37 37 37 37 38 38 39 40 40 41 41 42 42 43 43 43 44 45 45 44 45 46 46 47 47 48 47 47 48 49 50 50 51 52 53 54 56 58 59 60 61 62 62 64 66 67 67 67 68 68 68 67 67 67 67 67 66 65 63 61 59 58 58 59 58
34 36 38 40 42 42 42 41 41 41 40 40 39 38 38 38 38 37 37 37 37 37 37 37 38 38 39 40 41 41 42 42 42 43 43 43 44 44 44 44 45 46 48 48 49 49 49 49 50 50 51 52 52 53 54 54 56 57 59 60 61 62 63 65 66 67 67 69 69 69 68 68 67 67 66 66 66 65 63 61 58 56 55 56 56
35 38 40 41 42 43 42 41 41 41 41 40 40 39 38 38 38 37 37 37 37 37 37 38 38 39 39 40 41 42 42 43 43 43 43 43 43 43 44 44 45 47 48 49 49 49 49 50 51 51 52 53 54 54 55 55 56 58 59 60 61 63 65 67 68 68 69 70 70 70 69 68 68 66 65 65 64 63 62 60 57 54 52 52 52
37 39 40 41 42 43 42 42 41 41 41 41 40 39 39 39 38 37 37 37 37 37 38 38 38 39 39 40 41 42 43 44 44 44 44 44 43 43 43 44 45 46 48 49 49 49 50 50 51 52 53 54 54 54 55 56 58 59 60 62 64 66 67 68 69 70 70 70 70 70 69 68 66 65 64 63 61 60 59 57 55 52 51 49 49
38 40 41 42 43 43 43 42 42 42 42 41 40 40 40 39 38 37 37 37 37 38 38 39 39 40 40 40 41 42 43 44 44 44 44 43 43 43 43 44 44 46 47 48 48 49 49 50 51 52 52 53 54 55 56 58 59 61 62 64 66 67 68 69 70 70 70 70 69 68 67 65 64 63 61 60 58 57 55 54 52 50 49 48 47
39 40 41 42 43 44 43 43 42 43 42 41 40 40 40 39 38 37 37 37 38 38 39 39 40 40 41 41 41 42 43 44 44 44 44 43 43 43 43 44 44 45 46 48 48 48 49 49 50 51 52 53 55 56 58 59 61 63 64 66 67 68 68 69 69 69 69 69 68 66 65 63 61 60 58 56 54 53 51 50 49 47 47 46 45
40 41 42 42 43 44 44 43 42 42 42 41 41 41 40 39 38 37 37 38 38 38 39 40 40 41 42 42 42 42 43 43 44 44 44 43 43 44 44 44 44 44 46 48 48 48 48 49 50 52 54 56 57 59 60 61 63 64 65 66 67 67 67 67 67 67 67 67 65 64 62 60 58 56 54 52 50 49 48 48 47 45 45 45 44
41 41 41 42 43 44 43 43 42 42 41 41 41 41 40 38 38 38 38 38 38 39 40 40 41 42 42 42 42 42 43 43 43 43 43 43 43 44 43 43 44 45 47 48 48 48 49 50 52 53 56 57 59 60 61 62 63 64 65 65 66 66 66 65 65 64 64 63 62 60 58 56 54 52 50 48 47 45 45 45 44 44 43 43 42
40 41 41 42 44 44 43 43 42 42 42 41 41 40 40 39 38 38 38 38 38 39 40 41 42 42 42 42 43 43 43 43 43 43 43 43 43 43 44 44 45 47 48 49 49 49 50 52 53 55 56 58 59 60 61 62 64 65 65 65 65 65 64 63 62 61 60 58 57 55 53 51 49 48 46 44 43 42 42 42 42 41 41 41 40
40 41 42 43 43 43 43 43 42 42 42 41 40 40 40 39 39 39 38 38 39 40 41 41 42 43 43 42 43 43 44 43 42 42 42 43 43 44 44 45 46 47 49 50 49 50 51 53 54 55 57 58 59 61 62 64 65 65 65 65 64 63 62 61 59 57 56 54 52 51 49 47 46 44 43 42 40 40 40 40 39 39 39 38 38
41 42 43 43 42 42 42 42 41 41 41 41 41 41 40 39 39 39 38 38 39 40 41 41 42 42 43 43 43 44 44 43 43 43 43 43 43 43 44 44 45 47 48 48 48 49 51 53 54 56 57 59 60 62 63 64 65 65 65 64 62 60 59 57 56 54 51 50 49 47 46 44 43 42 41 40 39 38 37 37 37 37 37 36 36
42 42 42 42 41 41 42 41 41 42 41 41 41 41 40 40 39 39 38 38 39 40 41 41 42 42 43 43 43 43 44 44 43 44 43 43 43 43 44 44 45 46 47 47 47 49 51 53 54 56 58 59 61 62 63 64 65 65 64 62 60 58 55 53 52 50 48 47 45 44 43 42 41 40 39 39 38 37 36 35 35 35 35 34 34
42 42 42 41 41 42 42 42 42 42 42 42 41 41 40 40 39 38 38 38 39 40 41 41 41 42 43 44 44 44 44 44 44 43 43 43 43 43 44 44 45 46 46 46 48 49 51 53 55 56 58 59 61 62 63 64 64 64 62 60 57 54 51 49 48 47 46 45 43 42 41 40 39 38 38 37 37 36 35 34 34 34 33 32 31
42 42 42 42 42 42 42 43 43 42 42 41 41 40 40 39 39 38 38 38 39 40 40 41 41 42 43 43 44 45 45 44 44 43 43 42 43 43 43 43 44 45 45 46 48 50 51 53 54 56 57 59 60 62 63 63 63 62 59 57 54 50 48 46 45 44 44 43 41 40 39 38 37 37 36 36 36 35 34 34 33 33 33 32 30
43 44 43 43 43 43 43 43 43 43 42 41 40 40 40 39 39 39 38 38 39 40 40 41 41 42 42 43 43 44 44 44 43 43 42 42 42 43 43 43 43 44 45 47 48 49 51 52 53 55 56 58 60 61 62 62 61 59 56 52 49 46 45 44 43 43 42 41 39 38 37 36 36 36 35 35 35 34 34 33 33 33 32 31 30
46 46 45 44 43 43 44 44 43 42 41 40 39 40 40 39 38 38 38 38 39 40 40 41 41 42 42 43 43 44 43 43 42 42 41 42 42 42 42 42 42 43 45 46 47 48 49 51 52 54 56 58 59 60 61 60 59 56 52 49 45 44 43 43 42 41 40 39 38 36 36 35 35 34 34 34 34 34 33 33 33 32 32 31 30
47 46 45 44 43 44 44 43 42 41 40 39 40 40 39 38 37 38 38 38 39 39 40 40 41 42 43 43 43 43 43 42 41 41 41 41 41 41 41 41 41 42 43 44 46 47 49 51 52 54 56 58 59 59 59 58 56 53 49 46 43 42 42 42 41 40 39 38 36 35 35 34 33 33 33 33 33 33 34 33 33 32 31 31 31
47 46 45 43 43 43 43 42 41 40 40 40 40 39 38 37 37 37 38 38 38 38 39 40 41 42 43 43 42 42 41 40 40 40 40 41 41 40 40 40 40 41 43 44 45 47 48 50 52 53 55 57 58 58 58 56 53 50 46 43 42 41 41 41 40 39 37 36 35 34 33 33 32 32 32 32 32 32 33 33 33 31 30 30 31
45 44 43 43 42 42 42 41 40 40 40 40 39 37 36 36 37 37 37 37 37 37 38 40 41 42 43 42 41 40 39 39 39 39 39 40 40 39 39 39 40 41 42 43 45 46 48 49 51 53 54 56 56 56 56 54 51 47 43 42 41 40 40 39 38 37 36 35 34 33 32 32 31 31 31 31 32 32 32 32 32 31 30 30 30
43 43 43 43 42 41 40 40 40 40 39 39 37 36 36 36 37 37 37 37 37 37 38 39 40 41 42 41 40 39 38 37 37 37 38 38 38 37 37 38 39 40 41 43 44 46 47 49 50 52 54 55 55 55 54 51 48 44 41 40 40 39 38 38 37 37 36 34 33 32 31 31 30 30 30 30 31 32 32 32 32 31 30 30 31
42 42 42 42 41 40 39 39 39 39 38 37 36 36 36 36 36 37 36 37 37 37 38 39 40 41 41 40 39 37 36 36 36 36 36 36 36 36 37 38 39 40 41 42 44 45 47 48 50 51 53 54 54 54 52 49 45 41 39 39 39 38 37 37 36 36 34 33 32 31 30 30 29 28 28 29 30 31 32 32 31 30 30 30 31
41 41 42 42 41 39 39 39 39 38 37 36 36 35 36 36 36 36 36 36 37 37 38 39 40 41 40 39 38 36 35 35 35 35 35 35 35 35 36 37 38 39 40 41 43 45 46 48 49 51 52 53 53 52 51 47 43 39 37 37 38 37 36 35 35 34 33 32 31 30 29 28 28 28 27 28 28 29 30 30 30 30 29 30 30
40 41 42 42 40 39 39 38 37 37 36 36 35 35 36 36 36 36 36 36 37 37 38 39 40 41 40 38 37 35 35 34 35 35 35 34 34 35 36 36 37 38 39 41 42 44 45 47 48 50 51 52 52 51 49 46 41 38 36 36 36 36 35 34 33 33 32 30 29 29 28 27 27 27 27 27 27 28 29 29 29 29 28 28 29
40 41 41 41 39 38 38 37 36 36 36 35 35 36 36 35 36 36 36 36 37 37 38 39 40 40 39 38 36 35 34 34 34 34 34 33 33 34 35 35 36 37 38 40 41 43 44 46 47 49 50 50 50 50 48 44 40 37 36 35 35 35 35 34 33 32 31 30 29 27 26 26 26 25 25 25 26 27 28 28 28 27 27 28 29
39 39 40 39 38 38 37 37 36 35 35 35 36 36 35 35 35 36 36 36 36 37 38 39 39 39 38 37 35 34 34 34 34 34 33 33 33 33 34 34 35 36 37 39 40 41 43 44 46 47 48 49 49 48 46 43 39 36 35 35 35 34 34 33 32 32 31 30 28 26 25 25 25 25 24 25 25 26 27 27 26 26 26 27 28
38 38 38 38 37 37 36 36 35 35 35 36 36 35 35 35 35 35 36 36 36 37 38 39 39 38 37 35 34 34 33 33 33 33 32 32 32 32 33 33 34 35 36 38 39 40 42 43 44 46 47 47 47 46 44 41 37 35 34 34 34 34 33 33 32 32 31 30 28 27 26 26 26 26 25 24 25 25 26 26 26 26 26 27 27
37 38 38 37 36 36 35 35 35 36 36 36 35 35 35 35 35 35 35 36 36 37 37 38 38 37 36 34 33 33 33 33 33 32 32 31 31 31 32 32 33 34 35 36 38 39 40 42 43 44 45 46 46 45 43 39 36 34 33 33 34 34 33 32 32 31 30 29 29 28 28 27 26 25 24 23 23 24 25 25 25 25 26 26 27
37 37 37 37 36 35 35 36 36 36 36 35 34 34 35 35 35 35 35 35 36 36 37 38 37 36 34 34 33 33 33 33 32 31 30 30 30 30 30 31 32 33 34 35 37 38 39 40 42 43 44 45 45 44 42 38 35 33 32 32 33 33 32 32 31 30 30 29 29 28 27 26 25 23 22 22 23 24 24 24 24 24 25 26 27
36 36 36 36 35 35 36 36 36 36 35 34 34 35 35 35 35 34 35 35 35 36 36 37 36 35 34 33 33 32 32 32 31 30 29 29 29 29 29 30 31 32 33 34 35 37 38 39 40 41 42 43 43 43 41 38 34 31 31 31 32 32 32 31 30 30 29 29 28 27 26 25 24 23 22 22 23 23 23 23 23 23 24 25 26
34 34 35 35 35 35 36 36 36 35 34 35 35 35 34 34 34 34 35 35 35 35 36 36 35 34 33 32 32 32 31 31 30 29 28 28 28 28 28 29 30 31 32 33 34 35 36 37 38 39 40 41 42 42 40 38 34 31 30 30 30 30 31 30 30 30 29 28 27 26 26 24 24 23 23 22 22 22 23 22 22 23 24 24 24
33 33 34 34 34 35 35 36 36 35 35 36 36 34 33 33 34 34 35 35 35 35 36 36 34 33 32 32 32 31 31 30 29 28 28 28 27 27 27 28 28 29 30 31 33 34 35 36 37 38 38 39 40 40 40 38 34 31 29 29 29 29 29 29 29 29 28 28 27 26 25 25 24 24 23 22 22 22 22 22 22 22 23 24 24
33 33 33 34 35 36 36 36 36 36 36 36 35 34 33 34 34 34 34 34 35 35 35 35 33 32 32 31 31 31 30 29 28 28 27 27 26 26 26 27 27 28 29 30 31 32 33 34 35 36 37 38 39 39 39 38 35 31 28 28 28 28 28 28 28 28 27 27 27 26 26 25 25 24 23 22 22 22 21 21 21 22 22 23 24
Wind_Direction
238 243 248 253 259 263 268 272 277 280 283 285 287 287 289 291 292 294 295 296 297 296 296 294 293 293 293 295 297 299 300 301 302 303 303 304 305 305 305 305 305 304 303 302 301 301 301 301 301 302 302 303 303 304 305 306 306 308 308 309 309 308 308 308 308 310 311 310 309 309 309 307 307 307 307 306 305 304 303 302 303 302 301 300 300
245 249 253 256 261 265 271 275 278 281 283 284 285 287 290 292 293 294 294 294 294 292 292 291 291 293 295 297 299 300 301 301 302 303 304 304 305 304 304 303 303 302 301 301 301 302 302 302 302 302 303 303 304 305 306 307 308 309 310 310 309 308 307 307 307 307 309 309 308 307 308 307 307 307 307 306 305 305 305 305 306 305 304 303 303
249 252 256 260 264 269 273 276 278 280 282 284 286 288 290 291 292 292 291 291 290 290 291 292 294 296 298 299 300 301 302 303 303 304 304 303 303 303 303 302 302 302 302 302 303 303 303 303 303 303 304 304 305 306 307 309 310 310 311 310 309 308 306 305 305 305 305 307 307 307 307 306 306 307 306 305 305 306 306 307 307 307 307 307 306
253 256 260 264 268 271 273 276 279 281 283 286 287 289 289 290 290 290 290 290 291 292 294 296 298 299 300 301 301 302 303 303 303 302 302 302 302 302 303 303 304 304 304 304 304 304 304 304 304 304 304 306 307 309 310 311 311 311 311 310 308 307 305 304 304 304 304 305 306 307 307 307 307 307 307 306 305 306 306 307 307 307 308 308 309
257 260 263 266 269 272 275 277 280 282 284 285 287 288 289 289 290 291 292 294 295 297 298 299 300 301 301 301 301 302 302 301 301 301 302 302 303 304 304 305 305 305 304 304 304 304 304 304 304 305 306 308 309 311 312 312 312 311 311 310 308 306 305 304 304 304 305 306 306 306 306 306 307 307 307 305 305 305 306 306 307 307 307 308 308
260 262 265 267 270 273 275 277 279 281 283 285 286 288 289 291 293 295 296 297 297 298 299 300 300 300 300 300 300 300 300 300 301 302 302 303 304 305 305 306 306 305 305 305 304 304 303 304 305 306 308 310 311 312 313 312 311 310 309 308 306 304 304 304 305 306 306 306 307 307 306 307 307 306 306 305 305 306 306 305 306 305 306 307 307
261 263 266 268 270 272 274 277 279 281 283 285 287 290 292 294 295 295 295 295 296 298 299 299 298 298 299 299 299 300 300 301 302 302 303 304 305 306 306 306 306 305 304 304 304 303 304 305 306 308 310 312 312 313 312 311 310 309 308 306 305 304 304 305 306 306 307 307 307 307 307 308 307 306 305 305 305 306 306 306 305 305 305 306 306
262 264 266 268 271 273 275 277 280 283 285 287 290 292 293 294 293 293 293 295 296 297 297 296 297 297 298 299 299 300 301 301 302 303 304 305 306 307 307 306 305 305 304 304 304 304 305 306 308 310 312 312 312 312 311 310 309 308 307 306 305 306 306 307 307 307 307 307 306 307 308 308 307 305 305 306 306 306 306 305 305 305 305 305 306
262 264 267 269 272 274 277 280 283 285 287 289 290 291 290 290 290 291 293 294 295 295 295 296 297 298 298 299 299 300 301 302 304 305 306 307 307 307 307 306 306 305 305 305 305 305 306 308 310 311 312 312 311 311 310 309 308 307 306 306 306 307 307 308 308 308 307 306 306 307 307 306 306 305 305 306 306 306 305 304 304 305 305 305 305
263 266 269 272 274 276 279 281 283 284 285 286 287 287 287 289 290 291 293 293 294 294 295 296 297 298 299 299 300 301 302 304 306 307 307 307 307 308 307 307 306 306 306 306 306 307 308 310 311 311 311 311 311 310 309 308 307 306 306 306 307 308 308 308 308 307 306 306 307 308 306 305 306 306 306 306 306 306 305 305 305 305 305 305 305
266 269 271 272 274 276 278 279 279 280 282 284 285 286 287 289 290 291 292 293 294 295 296 297 298 298 298 299 300 302 304 306 307 307 307 307 308 308 308 308 308 308 308 308 308 310 311 311 312 312 312 311 311 310 309 308 307 306 305 306 307 307 308 308 307 307 307 308 308 307 305 305 306 306 306 306 305 305 305 305 306 306 306 305 305
266 269 270 270 271 273 274 275 277 279 283 285 286 287 287 288 289 291 292 293 294 295 296 297 297 297 298 300 302 304 306 307 308 308 308 308 308 309 309 309 309 309 309 309 310 311 311 312 312 313 313 312 312 311 309 308 307 306 306 307 307 307 308 308 307 307 308 308 306 304 304 304 305 305 304 304 304 305 305 305 305 305 305 305 305
266 267 267 267 269 272 274 276 278 282 285 286 285 285 285 287 289 291 292 293 294 295 295 296 297 298 300 303 305 306 307 308 308 308 308 309 309 310 310 310 310 310 309 310 310 311 312 312 313 313 313 312 312 311 310 309 309 308 308 308 308 308 307 306 306 308 308 306 304 303 303 303 303 304 304 303 304 304 304 303 304 303 303 304 304
265 265 265 267 271 274 276 278 281 284 284 283 283 283 284 286 289 290 292 293 293 294 295 296 297 300 303 305 306 307 308 309 309 309 309 310 310 310 310 310 310 310 309 310 310 311 312 312 313 313 313 312 312 311 311 310 310 309 309 309 309 309 308 308 309 308 307 305 303 302 302 303 303 304 304 303 303 303 302 303 302 302 302 302 302
264 265 267 271 275 277 278 280 281 282 281 281 281 281 283 286 288 290 291 292 293 294 295 297 299 302 305 307 308 308 309 309 310 310 310 310 311 311 311 310 310 309 309 310 310 311 312 313 313 313 313 312 312 312 311 312 311 310 311 310 310 310 310 311 310 308 306 305 303 302 303 304 304 303 303 302 301 300 299 299 299 299 299 299 299
266 268 272 275 276 277 278 278 279 279 279 279 279 281 283 286 288 289 290 291 292 294 296 299 302 305 306 307 308 309 310 310 311 311 311 311 311 311 310 310 310 309 309 310 311 312 313 313 313 313 313 313 313 313 313 313 312 311 311 311 311 311 312 311 309 307 306 305 303 303 304 304 303 301 300 299 298 297 297 296 297 297 297 297 298
270 272 274 275 275 275 275 276 277 277 277 278 279 281 283 286 288 288 289 291 293 295 297 301 304 306 307 308 309 310 311 311 311 312 311 311 311 311 310 310 310 310 311 311 312 313 314 314 314 314 314 314 314 315 314 313 312 312 311 311 312 313 313 311 309 308 306 305 305 305 304 302 301 300 299 298 297 296 296 296 296 296 295 296 296
272 273 275 274 273 272 273 274 276 276 277 278 279 281 283 285 287 288 290 292 294 296 299 302 304 306 307 308 309 310 311 312 312 312 312 311 311 311 311 311 311 311 312 313 314 314 314 314 315 315 315 316 316 316 315 313 313 312 313 314 315 315 314 312 310 308 306 306 305 304 302 301 301 300 299 299 298 297 296 295 296 296 295 295 296
272 273 272 271 270 270 272 274 275 275 276 278 279 281 283 285 287 288 290 292 295 297 300 303 305 306 307 308 309 311 312 313 313 313 312 312 312 312 312 312 312 313 313 314 314 314 314 316 316 317 317 317 317 316 315 315 316 316 317 317 316 315 314 311 309 307 307 307 305 303 303 302 301 300 300 299 298 297 296 296 296 296 296 296 296
272 270 268 267 268 270 272 273 274 275 277 278 280 281 284 285 287 289 291 293 295 297 300 303 305 306 307 308 310 311 313 314 314 313 313 312 312 312 312 313 314 314 314 315 315 315 316 318 318 319 318 318 317 317 317 318 319 318 318 317 315 313 312 309 308 308 307 306 304 303 303 301 300 300 299 298 298 297 297 297 297 297 297 296 296
268 266 266 266 268 270 272 273 274 276 277 278 280 282 284 285 287 289 290 292 294 297 300 303 305 306 307 309 311 312 314 315 315 314 313 312 312 312 313 314 315 315 315 315 315 316 319 320 319 319 319 318 318 318 319 319 318 317 316 314 313 311 309 308 308 307 306 304 304 303 302 301 301 300 299 298 298 298 297 297 297 297 296 296 295
265 264 265 266 267 270 271 273 274 276 277 278 280 282 283 284 286 288 290 292 294 297 301 303 305 306 308 310 312 314 315 315 315 315 314 312 312 313 314 315 315 315 314 314 316 318 319 319 319 319 318 318 319 319 319 318 317 315 314 313 312 310 308 308 309 308 306 306 305 305 304 303 302 302 300 300 299 298 298 298 298 297 296 294 294
263 263 264 266 268 270 272 273 275 276 277 278 279 281 282 283 285 288 290 292 295 298 301 303 305 307 309 311 313 315 315 316 316 315 313 312 313 313 314 315 314 313 313 314 316 318 318 318 318 318 319 320 320 319 318 317 316 315 314 313 312 311 311 310 310 309 308 307 306 306 305 304 304 303 302 301 301 300 299 299 298 298 296 294 293
262 263 265 266 268 270 272 273 274 275 276 278 279 280 281 282 285 287 290 292 295 298 301 303 305 308 310 312 314 315 316 316 315 314 312 312 313 313 313 313 313 312 313 314 315 316 317 318 318 319 320 319 319 318 317 317 316 316 316 315 314 313 312 311 310 309 309 307 307 306 305 305 305 304 304 303 302 301 300 300 299 298 297 295 293
262 263 264 266 267 269 271 272 273 274 276 277 278 278 280 282 284 287 289 292 295 298 301 303 306 308 310 312 314 315 315 315 314 313 312 312 312 312 312 312 313 313 313 313 313 315 317 318 319 319 319 319 318 319 319 319 319 318 317 316 315 314 313 312 311 310 309 308 307 307 307 307 307 306 306 305 304 303 302 301 300 299 298 296 295
261 262 263 265 267 269 271 272 273 274 275 276 277 278 279 281 284 287 289 292 295 298 301 304 306 308 310 312 313 314 315 314 313 312 311 311 311 311 312 312 312 312 311 311 314 317 319 319 320 321 321 321 321 321 321 321 321 319 318 317 316 314 313 312 311 310 310 309 309 309 309 309 308 308 308 307 306 305 304 303 302 301 300 298 297
261 262 264 266 268 270 271 272 272 273 274 275 276 277 279 281 284 287 289 292 295 299 301 303 305 307 309 311 313 314 314 313 312 311 311 311 311 311 311 311 311 311 312 314 317 321 322 322 323 324 323 323 323 323 323 322 321 319 318 317 316 315 314 313 312 312 311 311 311 311 311 310 310 310 310 309 308 308 306 305 304 303 302 302 300
262 263 264 266 267 269 270 271 271 273 274 275 276 277 279 282 284 286 288 292 295 298 300 302 304 305 308 310 312 313 313 312 311 311 311 310 310 310 310 312 314 314 315 318 322 324 324 325 325 324 324 324 323 323 322 321 320 319 318 318 317 316 316 315 314 313 312 312 312 312 312 312 312 312 312 311 311 309 308 307 306 306 305 305 304
262 263 264 265 266 267 269 270 271 272 273 274 275 277 279 282 283 285 288 291 294 297 299 301 302 304 307 310 312 313 313 312 311 310 309 309 309 310 312 315 316 317 318 322 325 325 325 325 325 324 324 324 323 323 322 321 321 320 319 319 319 318 317 316 315 314 314 314 313 313 314 314 315 315 314 314 313 311 310 310 309 309 308 308 307
262 262 263 265 266 268 269 270 271 271 272 273 274 276 279 281 282 283 287 290 293 295 297 300 302 305 308 311 312 313 312 311 311 310 309 310 310 312 314 317 318 318 320 323 325 325 325 325 324 324 324 324 324 324 323 322 321 321 321 321 321 320 319 318 317 317 317 316 316 317 317 317 317 317 316 315 315 314 314 314 313 312 312 311 310
262 262 264 266 267 268 269 269 269 270 271 272 274 276 278 279 280 282 285 288 291 294 296 299 302 306 309 311 312 312 311 311 311 310 310 310 311 313 316 318 319 319 321 324 324 324 325 325 325 325 325 325 325 324 323 323 323 323 323 323 323 323 322 321 320 319 319 318 318 319 319 319 319 319 318 318 318 318 318 318 316 315 314 314 313
263 264 265 266 267 267 268 268 268 269 270 272 273 275 277 278 279 281 284 287 290 293 296 299 303 306 309 310 311 312 312 311 310 309 310 310 312 315 318 319 319 320 323 324 324 325 325 325 326 326 326 325 325 325 325 324 324 324 325 325 325 325 324 323 323 322 320 320 320 321 321 321 320 320 320 320 321 322 322 321 319 317 317 316 316
265 265 265 265 266 266 267 267 268 269 270 271 273 275 276 277 278 280 283 286 290 293 296 300 303 306 308 310 311 312 311 310 309 309 310 311 314 317 319 319 319 321 323 324 324 325 326 326 326 326 326 326 326 326 326 326 326 326 327 327 327 327 326 325 325 323 322 321 322 322 322 321 320 320 321 322 324 325 325 324 322 321 320 319 320
266 265 265 266 266 266 267 267 268 269 270 271 273 274 275 275 277 279 283 287 290 293 296 300 303 306 308 309 310 311 310 309 308 309 310 312 315 317 318 318 320 322 324 325 325 326 326 326 326 326 327 328 328 328 328 327 327 327 328 329 329 328 328 327 326 325 323 323 323 323 322 322 321 321 322 324 325 326 327 326 324 324 323 323 323
266 266 266 266 267 267 267 268 268 269 270 271 272 272 273 274 277 279 283 287 290 293 296 300 303 306 307 309 310 309 308 307 308 309 310 312 315 316 317 319 321 323 324 325 325 325 325 326 327 328 329 329 329 329 329 329 329 329 330 330 330 330 329 328 327 326 325 324 324 324 323 322 322 322 323 325 326 327 328 328 327 326 326 326 326
268 268 268 268 269 269 268 268 268 269 269 269 269 270 272 274 276 279 283 286 289 292 296 300 303 306 307 308 309 308 307 306 307 308 310 312 314 316 317 318 320 322 323 324 324 325 326 327 329 330 331 331 331 331 330 330 330 330 331 331 331 331 330 329 329 328 327 326 326 325 324 323 323 322 323 325 327 328 329 329 329 329 329 328 328
268 269 270 270 269 268 267 267 268 267 267 266 268 270 272 273 274 278 282 285 289 293 297 300 303 305 306 307 307 306 305 304 305 307 309 312 314 315 316 318 320 321 323 324 325 326 327 329 330 332 332 332 332 332 332 331 331 332 332 332 332 332 331 331 330 329 329 328 327 326 325 323 323 323 323 324 327 329 330 330 329 330 330 329 328
268 270 270 269 267 266 266 267 267 266 265 266 268 269 270 271 273 277 281 285 289 293 296 299 302 303 305 305 304 303 302 303 305 307 309 311 313 314 316 318 320 322 323 324 326 327 329 331 332 333 333 334 333 333 333 333 332 332 332 332 333 333 332 332 331 331 331 331 329 327 325 324 323 323 323 325 327 329 330 330 330 331 331 330 330
269 270 270 269 268 268 268 268 267 266 265 266 267 268 268 270 273 278 282 285 289 292 295 298 300 301 302 303 302 301 301 302 304 306 308 310 312 314 316 319 320 322 324 326 327 329 331 332 334 335 335 335 335 334 334 334 334 333 333 333 333 333 333 333 333 333 333 333 331 329 326 325 324 324 324 325 327 329 331 332 332 332 332 332 332
270 270 270 270 269 269 268 267 266 265 265 265 266 266 267 270 273 278 282 285 288 291 293 297 299 300 301 301 299 299 300 301 303 305 308 310 312 314 316 318 320 322 325 327 329 331 333 334 336 336 336 336 336 335 335 335 334 334 334 333 333 334 334 334 334 334 335 334 332 330 328 325 325 324 324 325 328 330 331 332 333 333 334 333 332
269 269 269 269 268 267 267 266 265 265 264 264 264 265 267 270 274 278 282 285 287 290 293 296 298 300 300 299 298 298 299 301 303 306 308 309 311 313 316 318 321 323 326 328 330 332 334 335 337 337 337 337 337 337 336 336 335 335 335 334 334 334 335 336 335 335 336 336 333 331 329 327 326 325 325 326 328 330 331 332 334 334 334 332 330
268 268 268 268 267 267 267 266 265 263 262 262 263 264 266 270 274 278 282 284 287 290 293 296 298 299 299 298 298 298 299 301 304 306 308 309 311 313 316 319 322 324 327 329 331 333 335 336 337 338 338 339 338 338 337 336 336 335 335 335 335 335 336 337 337 336 336 337 335 333 331 329 327 327 327 327 329 331 332 334 334 333 332 331 332
266 266 267 267 266 266 265 263 261 260 261 261 262 263 266 270 275 278 281 283 286 290 293 295 297 298 297 297 297 298 299 301 304 306 307 309 311 314 317 320 322 325 328 330 332 334 336 337 338 339 340 340 340 339 338 337 336 335 335 336 336 336 336 337 338 337 337 338 337 334 332 329 328 327 328 328 330 332 333 333 333 332 332 333 334
266 266 266 265 264 262 261 259 259 259 260 260 261 263 266 271 275 278 280 283 287 290 292 294 296 297 296 296 296 297 299 302 304 306 307 310 312 315 318 320 323 326 328 331 333 335 337 338 339 340 341 341 341 340 339 337 335 335 336 336 336 337 338 338 338 338 338 338 337 335 335 334 333 331 331 331 332 332 332 332 333 334 335 335 334
265 265 264 263 262 259 258 257 257 258 259 259 260 263 267 271 275 278 280 283 286 289 292 294 296 296 295 295 296 297 299 302 304 305 307 310 313 315 318 321 323 326 329 331 334 336 337 339 341 341 342 342 342 342 340 338 335 335 336 336 336 337 338 339 339 339 338 337 337 338 340 339 336 333 331 331 331 331 333 335 335 336 335 335 337
264 264 262 261 259 256 255 254 255 257 258 259 261 264 268 271 275 277 280 283 286 289 292 294 294 294 294 294 295 297 299 302 303 305 306 309 312 314 317 320 323 326 329 332 334 336 338 340 341 343 343 344 344 343 341 338 336 335 335 336 337 337 339 340 340 339 338 338 339 340 341 338 334 330 329 329 331 333 335 337 336 335 335 337 339
264 263 261 259 256 253 251 252 254 255 257 258 260 264 268 271 274 277 280 283 287 290 292 294 294 293 293 294 294 296 299 300 301 303 305 308 311 314 317 320 323 326 329 332 334 336 339 341 342 344 344 345 345 344 342 340 336 335 335 336 337 337 339 340 339 339 339 340 340 339 337 334 330 328 329 331 334 336 336 336 336 336 337 339 340
263 262 260 257 254 250 249 251 253 255 256 258 260 264 268 271 274 277 281 284 287 290 292 293 293 292 292 293 293 295 297 298 300 302 304 307 310 313 316 319 323 326 329 331 334 336 339 341 343 344 345 346 346 346 344 341 338 335 335 336 337 337 338 339 339 340 340 340 338 336 335 333 333 333 335 335 336 336 336 337 338 338 338 340 341
262 260 258 255 252 250 250 251 253 254 255 256 259 264 268 271 274 278 282 285 288 290 292 292 292 291 290 291 292 294 296 297 299 301 303 306 308 312 315 318 322 325 328 331 333 336 339 341 343 344 346 347 348 348 346 343 339 336 335 336 337 337 338 338 339 340 340 339 337 336 336 337 338 338 337 336 335 336 338 339 339 338 338 340 343
260 257 255 253 250 249 249 250 251 252 253 256 260 265 269 271 274 279 283 286 288 290 291 291 290 289 289 290 291 293 294 296 297 299 302 304 307 310 314 317 321 325 328 330 333 336 339 341 343 345 347 349 350 349 348 345 341 337 336 336 337 337 338 338 338 338 338 338 338 338 339 340 340 338 336 336 336 338 340 339 338 337 338 341 346
258 255 253 250 249 248 248 249 250 251 253 257 262 266 268 271 275 280 284 286 288 289 290 290 289 288 288 288 289 291 292 293 295 297 300 302 306 309 313 317 320 324 327 330 333 336 338 341 343 345 348 350 351 351 351 348 344 339 336 336 336 337 337 338 338 338 338 338 340 341 341 341 339 337 336 337 338 339 340 339 337 337 339 343 346
Height
3118 3119 3120 3121 3121 3122 3122 3122 3121 3121 3120 3120 3119 3118 3117 3116 3115 3114 3112 3111 3110 3109 3108 3107 3106 3105 3104 3102 3100 3098 3097 3095 3093 3091 3089 3087 3085 3082 3080 3077 3075 3072 3069 3067 3064 3061 3058 3055 3052 3050 3047 3044 3041 3037 3034 3031 3027 3024 3020 3017 3014 3008 3003 2999 2993 2989 2992 2989 2983 2981 2979 2971 2967 2966 2959 2952 2949 2945 2942 2940 2939 2938 2936 2933 2930
3116 3117 3118 3119 3119 3119 3119 3119 3118 3118 3117 3116 3115 3114 3113 3112 3111 3110 3109 3108 3107 3106 3105 3104 3103 3101 3099 3097 3096 3094 3092 3091 3089 3087 3085 3082 3080 3078 3075 3073 3070 3067 3064 3061 3058 3055 3053 3050 3046 3044 3041 3038 3035 3032 3028 3025 3021 3017 3014 3010 3006 3003 2997 2992 2988 2982 2980 2981 2977 2973 2971 2967 2961 2959 2954 2947 2941 2937 2933 2931 2930 2928 2926 2926 2923
3115 3115 3116 3116 3116 3116 3116 3115 3115 3114 3113 3112 3111 3110 3109 3108 3108 3107 3106 3105 3104 3103 3101 3100 3098 3096 3094 3093 3091 3090 3088 3086 3084 3082 3080 3078 3076 3073 3070 3067 3064 3061 3058 3055 3053 3050 3047 3044 3041 3038 3035 3032 3029 3026 3022 3019 3015 3011 3008 3004 2999 2996 2992 2986 2982 2977 2972 2972 2971 2966 2963 2960 2955 2952 2948 2942 2936 2931 2927 2924 2922 2918 2917 2917 2915
3113 3113 3113 3113 3113 3112 3112 3111 3111 3110 3109 3108 3107 3107 3106 3105 3104 3103 3102 3101 3099 3098 3096 3095 3093 3091 3090 3088 3087 3085 3083 3081 3079 3077 3076 3073 3070 3067 3065 3062 3059 3055 3052 3049 3047 3044 3041 3038 3035 3032 3029 3026 3022 3019 3015 3011 3008 3004 3001 2998 2994 2989 2986 2981 2976 2972 2966 2963 2963 2960 2956 2952 2949 2945 2940 2935 2931 2926 2921 2919 2916 2911 2909 2908 2906
3110 3110 3109 3109 3109 3108 3108 3108 3107 3106 3106 3105 3104 3103 3102 3101 3100 3099 3097 3096 3094 3093 3091 3090 3089 3087 3085 3084 3082 3080 3079 3077 3075 3073 3070 3067 3064 3062 3059 3056 3053 3050 3047 3044 3041 3038 3035 3032 3029 3026 3023 3020 3016 3012 3009 3005 3001 2998 2994 2991 2987 2983 2979 2975 2970 2966 2961 2956 2954 2953 2950 2946 2942 2939 2934 2928 2924 2921 2917 2914 2911 2906 2902 2902 2900
3106 3106 3106 3105 3105 3105 3105 3104 3104 3103 3102 3101 3100 3099 3098 3097 3095 3094 3092 3091 3090 3088 3087 3085 3084 3082 3081 3079 3078 3076 3074 3072 3070 3067 3064 3062 3059 3056 3053 3051 3048 3044 3041 3038 3035 3033 3030 3027 3024 3020 3016 3013 3010 3006 3002 2999 2995 2991 2988 2985 2981 2976 2973 2969 2965 2960 2956 2951 2947 2944 2942 2939 2935 2932 2929 2923 2918 2915 2910 2906 2906 2902 2896 2895 2895
3102 3102 3102 3102 3102 3102 3101 3100 3100 3099 3098 3097 3096 3095 3093 3092 3091 3089 3088 3087 3085 3084 3083 3081 3080 3078 3077 3075 3073 3071 3069 3066 3064 3061 3059 3056 3054 3051 3048 3045 3042 3039 3036 3033 3030 3027 3024 3021 3018 3015 3011 3007 3004 3000 2996 2993 2989 2985 2982 2978 2975 2971 2966 2963 2959 2954 2950 2945 2941 2937 2934 2932 2928 2924 2922 2918 2913 2909 2903 2896 2896 2896 2892 2889 2887
3099 3099 3099 3099 3098 3098 3097 3096 3095 3094 3094 3093 3092 3090 3089 3088 3087 3086 3084 3083 3082 3080 3079 3077 3076 3074 3072 3070 3068 3066 3063 3061 3058 3056 3053 3050 3048 3045 3043 3040 3036 3034 3030 3027 3024 3021 3018 3016 3012 3009 3006 3002 2999 2995 2992 2987 2983 2980 2976 2972 2968 2964 2960 2956 2952 2948 2944 2939 2936 2932 2927 2924 2921 2916 2913 2911 2907 2904 2899 2891 2886 2885 2884 2884 2882
3095 3096 3095 3095 3094 3093 3092 3091 3091 3090 3089 3088 3087 3086 3085 3084 3083 3082 3080 3079 3078 3076 3075 3073 3071 3070 3068 3065 3063 3061 3058 3056 3053 3050 3047 3044 3042 3040 3037 3034 3030 3028 3025 3021 3019 3016 3012 3010 3007 3004 3001 2998 2995 2991 2987 2983 2978 2974 2970 2966 2962 2958 2954 2950 2946 2942 2938 2934 2930 2926 2922 2918 2915 2909 2906 2904 2900 2896 2892 2886 2881 2878 2875 2875 2876
3092 3091 3091 3090 3089 3089 3088 3087 3087 3086 3085 3085 3084 3083 3082 3080 3079 3078 3076 3075 3074 3072 3071 3069 3067 3065 3063 3060 3058 3055 3053 3050 3047 3044 3041 3038 3036 3034 3031 3028 3025 3021 3019 3015 3012 3010 3007 3004 3001 2999 2996 2993 2990 2987 2982 2978 2973 2969 2965 2961 2957 2953 2948 2945 2941 2937 2932 2928 2924 2920 2915 2911 2909 2904 2898 2896 2893 2888 2884 2879 2874 2871 2867 2864 2866
3088 3087 3087 3086 3085 3085 3085 3084 3083 3083 3082 3081 3080 3079 3078 3077 3075 3074 3072 3071 3069 3068 3066 3065 3063 3061 3058 3056 3053 3050 3048 3045 3042 3039 3036 3033 3031 3028 3025 3022 3019 3016 3012 3009 3006 3003 3000 2998 2995 2992 2990 2987 2984 2981 2977 2973 2968 2964 2960 2957 2953 2948 2943 2939 2935 2931 2926 2922 2918 2914 2909 2904 2902 2899 2893 2889 2886 2882 2877 2872 2867 2863 2860 2855 2853
3084 3084 3083 3082 3082 3081 3081 3080 3079 3079 3078 3077 3076 3075 3074 3073 3071 3069 3068 3066 3065 3063 3062 3060 3058 3056 3054 3051 3048 3045 3042 3040 3037 3034 3031 3028 3025 3023 3020 3016 3013 3010 3007 3003 3001 2998 2995 2992 2989 2986 2983 2980 2977 2974 2970 2967 2963 2959 2955 2952 2948 2944 2939 2934 2929 2925 2921 2916 2911 2908 2904 2899 2895 2893 2888 2882 2878 2875 2870 2866 2862 2856 2853 2849 2844
3080 3079 3079 3078 3078 3077 3077 3076 3075 3074 3074 3073 3072 3071 3070 3068 3067 3065 3063 3062 3060 3059 3057 3055 3053 3051 3049 3046 3043 3040 3037 3034 3032 3029 3026 3023 3020 3017 3015 3011 3008 3005 3002 2999 2996 2993 2990 2987 2984 2981 2977 2974 2971 2967 2963 2960 2956 2952 2949 2945 2942 2938 2934 2930 2926 2921 2916 2910 2905 2901 2898 2893 2889 2886 2882 2876 2871 2867 2863 2859 2856 2851 2846 2843 2839
3075 3075 3074 3074 3074 3073 3072 3071 3070 3070 3070 3069 3068 3067 3065 3064 3063 3061 3059 3058 3056 3054 3052 3050 3048 3046 3044 3041 3038 3035 3032 3030 3027 3024 3021 3018 3015 3012 3009 3006 3003 3000 2997 2994 2991 2988 2985 2982 2978 2975 2972 2969 2965 2961 2957 2953 2949 2945 2942 2938 2934 2931 2928 2924 2920 2915 2910 2905 2899 2895 2891 2887 2883 2879 2875 2871 2865 2860 2855 2850 2848 2844 2839 2836 2833
3070 3070 3070 3070 3070 3068 3067 3067 3067 3066 3066 3065 3064 3063 3061 3060 3059 3057 3055 3054 3052 3050 3048 3045 3043 3041 3038 3036 3033 3030 3027 3025 3022 3019 3016 3012 3010 3007 3004 3001 2998 2995 2992 2989 2986 2983 2980 2977 2974 2970 2967 2963 2960 2955 2951 2947 2942 2938 2935 2931 2927 2924 2921 2917 2913 2908 2903 2899 2893 2888 2884 2881 2877 2872 2868 2865 2859 2854 2849 2844 2840 2836 2832 2829 2826
3066 3066 3066 3066 3065 3064 3063 3063 3063 3062 3062 3060 3059 3058 3057 3056 3054 3053 3051 3049 3047 3045 3042 3040 3038 3036 3033 3031 3028 3025 3022 3020 3017 3014 3010 3007 3005 3002 2999 2997 2994 2991 2988 2984 2981 2978 2975 2972 2968 2965 2962 2958 2954 2950 2945 2940 2936 2931 2928 2924 2921 2918 2914 2911 2906 2901 2897 2892 2887 2883 2879 2875 2871 2867 2863 2859 2854 2848 2843 2838 2835 2831 2825 2820 2818
3062 3062 3063 3062 3061 3060 3059 3058 3058 3058 3057 3056 3055 3054 3053 3051 3050 3048 3046 3044 3042 3039 3037 3035 3033 3031 3028 3026 3023 3021 3018 3015 3012 3009 3005 3002 2999 2997 2994 2991 2988 2985 2982 2979 2976 2973 2970 2967 2963 2960 2956 2952 2948 2944 2939 2934 2929 2925 2921 2917 2914 2911 2907 2903 2899 2895 2890 2886 2882 2878 2873 2869 2865 2861 2857 2853 2848 2843 2836 2830 2828 2824 2818 2813 2810
3059 3059 3059 3058 3057 3056 3055 3054 3054 3053 3052 3051 3050 3049 3048 3046 3044 3043 3041 3039 3037 3034 3032 3030 3028 3025 3023 3021 3019 3016 3013 3010 3007 3004 3001 2997 2994 2991 2988 2986 2983 2979 2976 2973 2971 2968 2965 2962 2959 2954 2950 2946 2942 2938 2933 2927 2922 2918 2913 2909 2906 2903 2899 2895 2890 2886 2882 2879 2875 2871 2866 2862 2857 2853 2849 2845 2840 2836 2829 2823 2820 2816 2810 2806 2802
3056 3056 3055 3053 3052 3051 3050 3049 3049 3048 3047 3046 3044 3043 3043 3041 3039 3038 3036 3034 3031 3029 3027 3025 3023 3021 3018 3016 3014 3012 3009 3006 3003 2999 2996 2992 2988 2986 2983 2980 2977 2973 2970 2967 2965 2962 2959 2956 2953 2948 2944 2939 2935 2931 2927 2921 2915 2910 2906 2901 2898 2895 2892 2888 2882 2877 2874 2870 2866 2861 2857 2853 2848 2843 2839 2835 2831 2827 2822 2816 2812 2808 2802 2798 2795
3052 3051 3049 3048 3047 3046 3045 3044 3043 3042 3041 3040 3039 3038 3037 3036 3034 3032 3030 3029 3027 3025 3023 3021 3018 3016 3014 3011 3009 3007 3004 3001 2998 2994 2991 2987 2983 2980 2977 2974 2971 2967 2964 2962 2959 2956 2953 2950 2946 2941 2937 2933 2929 2924 2920 2915 2909 2904 2900 2895 2891 2887 2884 2880 2875 2870 2865 2860 2856 2852 2848 2844 2840 2835 2830 2826 2822 2818 2814 2809 2805 2801 2795 2790 2788
3047 3045 3044 3043 3042 3040 3040 3039 3038 3037 3036 3035 3034 3033 3032 3030 3029 3027 3025 3024 3022 3020 3018 3016 3014 3011 3009 3006 3004 3001 2999 2996 2992 2989 2985 2982 2978 2975 2972 2969 2966 2962 2959 2957 2953 2950 2947 2943 2939 2935 2931 2927 2923 2918 2914 2910 2905 2900 2895 2891 2886 2881 2875 2871 2868 2863 2857 2852 2847 2843 2839 2834 2830 2826 2822 2817 2813 2808 2804 2801 2798 2794 2789 2784 2780
3041 3040 3038 3037 3036 3035 3034 3034 3033 3032 3031 3030 3029 3028 3027 3025 3023 3022 3021 3019 3017 3015 3013 3011 3009 3006 3004 3002 2999 2996 2993 2990 2987 2984 2980 2977 2973 2970 2967 2964 2961 2958 2955 2952 2949 2945 2942 2937 2933 2929 2925 2921 2917 2913 2908 2905 2901 2896 2891 2886 2881 2875 2868 2863 2858 2853 2848 2842 2837 2832 2828 2823 2819 2816 2812 2808 2804 2799 2795 2792 2789 2786 2783 2779 2774
3035 3034 3033 3032 3030 3030 3029 3029 3028 3027 3026 3025 3024 3022 3021 3020 3018 3017 3016 3014 3012 3010 3008 3006 3004 3001 2999 2996 2994 2991 2988 2985 2982 2978 2975 2971 2968 2965 2962 2960 2957 2954 2951 2947 2944 2941 2937 2933 2928 2924 2919 2915 2911 2908 2903 2899 2895 2890 2885 2880 2874 2867 2860 2854 2849 2843 2837 2832 2826 2821 2818 2813 2809 2806 2802 2798 2795 2791 2787 2783 2781 2778 2774 2772 2769
3029 3028 3027 3026 3025 3025 3025 3024 3023 3022 3020 3019 3018 3017 3016 3014 3013 3012 3010 3008 3007 3005 3003 3001 2998 2996 2994 2991 2989 2986 2983 2980 2976 2973 2970 2967 2963 2960 2958 2955 2953 2951 2947 2943 2940 2937 2933 2929 2924 2919 2915 2911 2907 2903 2898 2893 2888 2883 2877 2871 2865 2859 2852 2845 2839 2834 2828 2823 2818 2813 2809 2805 2801 2797 2793 2790 2786 2782 2779 2775 2772 2770 2767 2764 2762
3023 3022 3021 3021 3020 3019 3019 3019 3017 3016 3015 3014 3013 3011 3010 3009 3008 3007 3005 3003 3002 3000 2998 2995 2993 2990 2988 2987 2984 2982 2979 2975 2972 2968 2965 2962 2959 2956 2953 2952 2949 2946 2942 2938 2936 2933 2929 2924 2919 2915 2910 2906 2901 2897 2892 2886 2880 2874 2868 2862 2856 2850 2844 2837 2831 2825 2819 2814 2809 2804 2800 2797 2793 2789 2785 2782 2778 2774 2771 2767 2765 2763 2760 2757 2755
3017 3016 3016 3015 3015 3014 3013 3013 3011 3010 3009 3008 3007 3006 3004 3004 3003 3002 3000 2999 2997 2995 2992 2990 2987 2985 2983 2982 2979 2977 2974 2971 2967 2964 2960 2957 2954 2951 2949 2947 2945 2942 2938 2934 2931 2928 2923 2918 2914 2909 2903 2898 2893 2888 2883 2878 2872 2866 2860 2854 2849 2842 2836 2830 2823 2817 2811 2806 2801 2796 2792 2789 2785 2782 2778 2775 2771 2768 2764 2760 2758 2756 2753 2750 2748
3011 3011 3010 3010 3009 3008 3007 3006 3006 3004 3003 3003 3001 3000 2999 2999 2998 2997 2995 2994 2992 2990 2987 2984 2982 2980 2978 2976 2974 2972 2969 2966 2963 2959 2956 2952 2949 2947 2945 2943 2941 2937 2932 2928 2925 2921 2916 2910 2906 2901 2896 2891 2885 2880 2875 2870 2865 2860 2854 2848 2842 2835 2829 2823 2816 2810 2804 2799 2794 2790 2786 2782 2778 2776 2772 2769 2766 2762 2758 2754 2752 2750 2747 2744 2742
3005 3005 3005 3004 3003 3002 3001 3000 3000 2999 2998 2997 2996 2995 2994 2994 2993 2992 2990 2989 2987 2984 2982 2979 2977 2975 2973 2971 2969 2967 2964 2961 2958 2954 2951 2948 2945 2943 2940 2938 2934 2930 2924 2920 2916 2912 2907 2903 2899 2894 2890 2885 2880 2875 2870 2865 2859 2854 2848 2842 2836 2829 2822 2816 2810 2804 2798 2793 2789 2785 2781 2777 2774 2770 2767 2764 2761 2757 2754 2750 2747 2745 2742 2740 2737
2999 2999 2999 2998 2997 2996 2995 2995 2994 2993 2992 2991 2991 2990 2990 2989 2988 2987 2985 2984 2982 2979 2977 2974 2972 2970 2968 2966 2964 2961 2958 2956 2952 2949 2946 2943 2940 2938 2935 2932 2928 2922 2917 2913 2909 2905 2901 2897 2893 2889 2885 2880 2875 2870 2864 2859 2853 2847 2841 2835 2829 2823 2816 2809 2804 2799 2793 2788 2784 2780 2776 2773 2769 2766 2763 2760 2757 2754 2750 2747 2744 2741 2738 2736 2733
2993 2992 2992 2992 2992 2991 2990 2990 2989 2988 2987 2986 2986 2985 2985 2984 2983 2981 2980 2979 2977 2974 2972 2969 2967 2965 2962 2960 2958 2956 2953 2950 2947 2944 2941 2938 2935 2933 2930 2927 2922 2916 2911 2907 2904 2900 2896 2892 2888 2883 2879 2874 2868 2863 2857 2852 2846 2841 2835 2828 2822 2816 2810 2804 2798 2793 2788 2783 2779 2775 2772 2768 2765 2762 2759 2756 2753 2750 2747 2743 2740 2738 2735 2732 2730
2986 2986 2986 2986 2986 2986 2984 2984 2983 2982 2982 2981 2980 2980 2979 2978 2977 2976 2975 2973 2971 2969 2967 2965 2962 2960 2957 2955 2953 2951 2948 2945 2942 2938 2935 2933 2930 2927 2925 2921 2916 2911 2907 2903 2899 2895 2891 2887 2883 2878 2873 2868 2862 2857 2851 2845 2839 2833 2828 2822 2816 2810 2805 2799 2793 2788 2784 2779 2775 2772 2769 2765 2762 2758 2755 2752 2749 2747 2744 2741 2738 2735 2732 2729 2727
2980 2981 2981 2981 2980 2979 2978 2977 2977 2977 2976 2976 2975 2974 2974 2973 2972 2971 2970 2968 2966 2964 2962 2960 2957 2955 2952 2950 2948 2945 2942 2939 2936 2933 2931 2928 2925 2922 2919 2915 2910 2906 2902 2898 2895 2891 2887 2882 2878 2873 2868 2862 2857 2851 2845 2838 2832 2826 2821 2816 2811 2805 2799 2794 2789 2784 2779 2776 2772 2769 2766 2762 2759 2755 2752 2749 2746 2743 2741 2738 2735 2732 2729 2727 2725
2975 2975 2975 2974 2973 2973 2972 2971 2971 2971 2971 2970 2969 2969 2968 2968 2967 2965 2964 2963 2961 2959 2957 2954 2952 2950 2947 2945 2942 2939 2937 2934 2931 2928 2926 2923 2920 2916 2913 2909 2905 2901 2897 2894 2890 2886 2882 2878 2874 2869 2863 2858 2852 2845 2839 2832 2826 2821 2815 2810 2805 2800 2795 2790 2786 2781 2776 2773 2769 2766 2763 2759 2756 2753 2750 2747 2744 2741 2738 2735 2732 2729 2727 2724 2722
2968 2968 2968 2968 2967 2967 2966 2966 2966 2965 2965 2965 2964 2964 2963 2962 2961 2960 2959 2958 2956 2954 2952 2949 2947 2945 2943 2940 2938 2935 2932 2929 2926 2923 2920 2917 2914 2911 2908 2905 2900 2896 2892 2889 2885 2882 2878 2874 2870 2865 2859 2853 2847 2841 2834 2828 2821 2816 2810 2805 2800 2796 2791 2787 2782 2778 2774 2770 2767 2764 2760 2757 2753 2750 2747 2745 2742 2739 2736 2733 2730 2727 2724 2722 2720
2960 2961 2961 2961 2961 2961 2960 2960 2960 2960 2960 2960 2959 2958 2958 2957 2956 2955 2954 2953 2951 2949 2946 2944 2942 2940 2938 2935 2933 2930 2927 2924 2921 2918 2915 2913 2910 2907 2903 2900 2896 2892 2888 2885 2882 2878 2874 2870 2865 2860 2854 2848 2842 2836 2829 2823 2817 2811 2806 2801 2797 2792 2788 2784 2780 2775 2771 2768 2764 2761 2758 2755 2751 2748 2745 2743 2740 2737 2734 2732 2728 2725 2722 2720 2717
2953 2954 2954 2954 2955 2954 2954 2953 2954 2954 2954 2954 2953 2953 2952 2952 2951 2950 2949 2948 2946 2944 2941 2939 2937 2935 2933 2930 2928 2925 2922 2919 2916 2914 2911 2908 2906 2903 2899 2896 2892 2889 2886 2883 2879 2875 2870 2865 2860 2855 2849 2843 2837 2831 2824 2818 2812 2807 2802 2797 2793 2789 2785 2781 2777 2773 2769 2765 2762 2759 2756 2753 2750 2747 2744 2741 2738 2735 2732 2730 2727 2724 2721 2718 2715
2947 2947 2948 2948 2948 2948 2947 2947 2948 2948 2948 2947 2947 2947 2947 2946 2946 2945 2944 2943 2941 2939 2937 2935 2932 2930 2928 2926 2924 2921 2918 2915 2912 2910 2907 2904 2901 2898 2895 2892 2889 2886 2882 2879 2875 2871 2866 2861 2855 2850 2845 2839 2833 2826 2820 2814 2808 2803 2799 2794 2790 2786 2782 2778 2774 2770 2767 2763 2760 2757 2754 2751 2748 2745 2742 2739 2737 2734 2731 2728 2725 2723 2720 2717 2714
2940 2941 2941 2942 2941 2941 2941 2941 2941 2941 2941 2941 2941 2941 2941 2941 2940 2939 2939 2938 2936 2935 2933 2930 2928 2926 2924 2922 2920 2917 2914 2911 2908 2905 2903 2900 2897 2894 2891 2887 2884 2881 2878 2875 2871 2866 2861 2856 2851 2845 2840 2834 2828 2822 2816 2811 2805 2800 2796 2792 2788 2784 2780 2776 2772 2768 2765 2762 2758 2755 2752 2749 2746 2743 2740 2738 2735 2733 2730 2727 2724 2721 2718 2716 2713
2934 2935 2935 2935 2935 2935 2935 2935 2935 2935 2935 2936 2936 2936 2935 2935 2935 2934 2934 2933 2931 2930 2928 2926 2923 2921 2919 2917 2915 2913 2910 2907 2904 2902 2899 2896 2893 2890 2886 2883 2880 2877 2874 2870 2866 2862 2857 2852 2847 2841 2835 2830 2824 2818 2813 2807 2802 2797 2793 2789 2785 2782 2778 2774 2770 2766 2763 2760 2757 2753 2750 2747 2745 2742 2739 2736 2734 2731 2728 2725 2722 2719 2716 2714 2711
2928 2928 2928 2928 2928 2929 2929 2929 2929 2930 2930 2930 2930 2930 2930 2929 2929 2929 2928 2927 2926 2925 2923 2921 2919 2917 2915 2912 2910 2908 2905 2903 2900 2898 2895 2891 2888 2885 2882 2879 2876 2873 2869 2866 2861 2857 2852 2847 2842 2837 2832 2826 2820 2814 2809 2804 2799 2795 2791 2787 2783 2780 2776 2772 2768 2765 2761 2758 2755 2752 2749 2746 2743 2741 2738 2735 2733 2730 2727 2724 2721 2718 2715 2712 2710
2921 2922 2922 2922 2922 2923 2923 2923 2923 2924 2924 2924 2924 2924 2924 2924 2924 2923 2922 2921 2920 2919 2917 2915 2913 2911 2909 2907 2905 2903 2901 2898 2896 2893 2890 2887 2884 2881 2878 2875 2872 2869 2865 2861 2857 2852 2848 2843 2838 2833 2828 2822 2816 2811 2805 2800 2796 2792 2789 2785 2781 2777 2774 2770 2767 2763 2760 2757 2754 2750 2747 2744 2741 2739 2737 2734 2732 2729 2726 2723 2720 2717 2715 2712 2709
2915 2915 2915 2915 2916 2916 2917 2917 2918 2918 2918 2918 2918 2918 2918 2918 2918 2917 2917 2916 2915 2914 2912 2910 2908 2906 2904 2902 2900 2898 2895 2893 2891 2888 2886 2883 2880 2877 2874 2871 2868 2865 2861 2857 2853 2849 2844 2839 2834 2830 2824 2819 2813 2808 2802 2797 2793 2790 2787 2783 2779 2775 2772 2769 2765 2762 2759 2756 2752 2749 2746 2743 2740 2738 2735 2733 2731 2728 2725 2722 2720 2717 2714 2712 2708
2908 2909 2909 2909 2910 2911 2911 2911 2912 2912 2912 2913 2913 2913 2913 2913 2912 2912 2911 2910 2909 2908 2906 2904 2902 2900 2898 2896 2894 2892 2890 2888 2886 2883 2881 2878 2875 2873 2870 2867 2864 2860 2857 2853 2849 2845 2841 2836 2831 2826 2821 2816 2810 2805 2799 2795 2791 2787 2784 2781 2777 2774 2770 2767 2763 2760 2757 2754 2751 2748 2745 2742 2739 2737 2734 2732 2730 2727 2725 2722 2719 2716 2713 2711 2708
2902 2902 2903 2903 2904 2904 2905 2905 2906 2906 2907 2907 2907 2907 2907 2907 2907 2906 2905 2905 2904 2903 2901 2899 2897 2895 2893 2891 2889 2887 2885 2883 2880 2878 2876 2873 2871 2868 2865 2863 2860 2857 2853 2849 2846 2842 2837 2833 2828 2823 2818 2813 2807 2802 2797 2792 2788 2785 2782 2778 2775 2772 2768 2765 2762 2759 2756 2753 2750 2747 2744 2741 2738 2735 2733 2731 2729 2727 2724 2721 2718 2716 2713 2710 2707
2896 2896 2896 2897 2898 2898 2899 2899 2900 2901 2901 2901 2901 2901 2902 2901 2901 2901 2900 2899 2898 2897 2895 2893 2891 2889 2887 2886 2884 2882 2880 2878 2875 2873 2871 2868 2866 2864 2861 2859 2856 2853 2849 2846 2842 2838 2834 2830 2826 2821 2815 2810 2805 2799 2794 2790 2786 2782 2779 2776 2773 2770 2767 2763 2760 2757 2754 2751 2748 2745 2742 2739 2737 2734 2732 2730 2728 2726 2723 2720 2717 2715 2712 2709 2707
2889 2890 2890 2891 2891 2892 2893 2894 2894 2894 2895 2895 2896 2896 2896 2896 2896 2895 2895 2894 2893 2891 2890 2888 2886 2884 2882 2880 2878 2876 2875 2873 2871 2868 2866 2864 2862 2860 2857 2855 2852 2849 2846 2842 2839 2835 2831 2827 2823 2818 2813 2808 2802 2797 2792 2788 2784 2781 2777 2774 2771 2768 2765 2762 2759 2756 2753 2750 2746 2743 2741 2738 2736 2734 2731 2729 2727 2725 2722 2719 2717 2714 2711 2709 2706
2883 2884 2884 2885 2886 2886 2887 2888 2888 2888 2889 2890 2891 2891 2891 2891 2890 2890 2889 2888 2887 2886 2884 2882 2880 2878 2877 2875 2873 2871 2870 2868 2866 2864 2862 2860 2858 2856 2854 2851 2848 2845 2842 2839 2835 2832 2828 2824 2820 2815 2810 2805 2800 2795 2790 2786 2782 2779 2776 2772 2769 2766 2763 2760 2757 2754 2751 2748 2745 2742 2740 2738 2735 2733 2730 2728 2726 2724 2722 2719 2716 2714 2711 2708 2705
2877 2878 2878 2879 2880 2880 2881 2881 2882 2883 2884 2885 2885 2885 2885 2885 2885 2885 2884 2883 2882 2880 2879 2877 2875 2873 2871 2870 2868 2867 2865 2863 2861 2859 2858 2856 2854 2852 2850 2847 2845 2841 2838 2835 2832 2829 2825 2821 2817 2813 2808 2803 2798 2793 2788 2784 2780 2777 2774 2771 2768 2764 2761 2759 2756 2753 2750 2747 2744 2742 2739 2737 2734 2731 2729 2727 2725 2723 2721 2718 2716 2713 2711 2708 2706
2872 2872 2872 2873 2874 2874 2875 2876 2877 2878 2879 2879 2879 2880 2880 2880 2880 2879 2878 2877 2876 2875 2873 2871 2870 2868 2866 2865 2863 2862 2860 2859 2857 2855 2853 2852 2850 2848 2846 2843 2841 2838 2835 2832 2829 2826 2822 2818 2815 2810 2806 2801 2796 2791 2787 2782 2779 2775 2772 2769 2766 2763 2760 2757 2754 2752 2749 2746 2744 2741 2738 2735 2733 2730 2728 2726 2725 2722 2720 2718 2715 2713 2710 2708 2705
2865 2866 2866 2867 2868 2869 2870 2871 2872 2873 2873 2874 2874 2874 2874 2874 2874 2873 2873 2872 2871 2869 2867 2866 2864 2863 2861 2860 2858 2857 2856 2854 2852 2851 2849 2848 2846 2844 2842 2840 2837 2835 2832 2829 2826 2823 2819 2816 2812 2808 2803 2799 2794 2790 2785 2781 2777 2774 2771 2768 2765 2762 2759 2756 2753 2751 2748 2745 2743 2740 2737 2734 2732 2730 2728 2726 2724 2722 2720 2717 2715 2712 2710 2708 2705
2859 2860 2860 2861 2862 2863 2864 2865 2866 2867 2868 2868 2869 2869 2869 2869 2868 2868 2867 2866 2865 2864 2862 2860 2859 2858 2856 2855 2854 2852 2851 2850 2848 2847 2845 2844 2842 2840 2838 2836 2833 2831 2828 2825 2823 2820 2816 2813 2809 2805 2801 2797 2792 2788 2784 2780 2776 2772 2769 2767 2764 2761 2758 2755 2753 2750 2747 2744 2741 2738 2735 2733 2731 2729 2727 2725 2723 2721 2719 2717 2714 2712 2710 2707 2705